Location: Wyalusing
(42.9440°N, 91.1410°W)
Time: 01:32:26
(UTC-06:00)

Hubble Space Telescope - Visible Passes

Search period start: 21 February 2018 00:00
Search period end: 03 March 2018 00:00
Orbit: 537 x 541 km, 28.5° (Epoch: 20 February)

Date Brightness Start Highest point End Pass type
(mag) Time Alt. Az. Time Alt. Az. Time Alt. Az.
21 Feb 3.4 06:11:27 10° S 06:12:17 11° S 06:13:08 10° SSE visible
22 Feb 3.3 06:00:52 10° SSW 06:01:52 11° S 06:02:51 10° SSE visible
23 Feb 3.3 05:50:29 10° SSW 05:51:26 11° S 05:52:23 10° SSE visible
24 Feb 3.3 05:40:19 10° SSW 05:41:01 10° S 05:41:43 10° S visible
